Location: McFarlands Corners
(41.4117°N, 81.3382°W)
Time: 00:05:24
(UTC+00:00)

Tiros 1 - Pass Details

Date: 17 February 2026
Orbit: 618 x 649 km, 48.4° (Epoch: 9 March)

Event Time Altitude Azimuth Distance (km) Brightness Sun altitude
Rises 19:37:00 0° 298° (WNW) 2,891 10.6 30.3°
Reaches altitude 10° 19:39:19 10° 298° (WNW) 1,982 9.8 30.1°
Maximum altitude 19:43:52 83° 212° (SSW) 625 7.7 29.6°
Drops below altitude 10° 19:48:24 10° 123° (ESE) 1,975 9.7 29.1°
Sets 19:50:42 0° 123° (ESE) 2,880 10.5 28.8°
